Iridium Next SV145

operational
NORAD ID: 43253 Int'l Des: 2018-030 Owner: IRIDS Country: US Constellation: Iridium NEXT
LEOCIRCULARPOLAR

Iridium Next SV145について

説明を読み込み中...

リアルタイム位置

3D地球を読み込み中...

次回通過

高度履歴

Altitude vs Time

uPlot chart will show altitude changes over time

軌道要素

1 43253U 18030E 26062.28392700 .00000230 00000-0 75153-4 0 9996
2 43253 86.4015 334.6942 0001857 92.9247 267.2161 14.34218547414944
Epoch: Mar 3, 2026 • Age: 33 hours

現在のステータス

高度 789.5 km
速度 7.46 km/s
衛星直下点 -29.64°S, 139.42°W
打ち上げ日 Mar 30, 2018
運用期間 7.9 years
タイプ communications

技術仕様

分類 Payload
質量 860.00 kg
乾燥質量 700.00 kg
総質量 860.00 kg
長さ 3.10 m
直径 1.50 m
スパン 9.40 m
形状 Half Hex Prism+2 pan
製造者 OATKGA
バスタイプ EliteBus
フェーズステータス In Orbit
所有者/国 IRIDS/US

大規模コンステレーション

Loading constellations...